Regional Weather Roundup
Issued by NWS Wakefield, VA

Home | Current Version | Previous Version | Graphics & Text | Print | Product List | Glossary On
Versions: 1 2 3 4 5 6 7 8 9 10 11 12 13 14 15 16 17 18 19 20 21 22 23 24 25 26 27 28 29 30 31 32 33 34 35 36 37 38 39 40 41 42 43 44 45 46 47 48 49 50
000
ASUS41 KAKQ 062315
RWRAKQ

REGIONAL WEATHER ROUNDUP
NATIONAL WEATHER SERVICE WAKEFIELD VA
700 PM EDT WED MAY 06 2015

Note: "fair" indicates few or no clouds below 12,000 feet with no
significant weather and/or obstructions to visibility. * = Denotes
station may not report precipitation (e.g., rain,snow,etc.),
thunder or fog.

VAZ042-051-052>054-056-070000-
NORTHERN VIRGINIA

CITY           SKY/WX    TMP DP  RH WIND       PRES   REMARKS
WASH NATIONAL  CLOUDY    78  61  55 E5        30.16R
DULLES         LGT RAIN  67  62  84 SE6       30.14F
FORT BELVOIR   CLOUDY    73  68  85 VRB1      30.15R
QUANTICO       CLOUDY    72  67  84 N6        30.15R
FREDERICKSBRG* MOSUNNY   81  66  60 NE10      30.12S
STAFFORD*      PTSUNNY   75  62  62 N7        30.18R
WARRENTON      LGT RAIN  71  65  81 NE5       30.16R
CULPEPER*      PTSUNNY   71  61  69 NE7G17    30.16R
MANASSAS*      PTSUNNY   66  66 100 N6        30.17R
LEESBURG*      CLOUDY    70  66  88 N3        30.16S
WINCHESTER     MOSUNNY   72  55  56 SW3       30.14F
FRONT ROYAL*   FAIR      68  64  88 CALM      30.13F
LURAY*         TSTM      64  61  88 SE8G26    30.16S
$$

VAZ048-049-060>072-079>083-070000-
CENTRAL AND SOUTH CENTRAL VIRGINIA

CITY           SKY/WX    TMP DP  RH WIND       PRES   REMARKS
RICHMOND       CLOUDY    80  59  48 SE9       30.12S
CHESTERFIELD*  FAIR      79  55  44 SE8       30.13F
PETERSBURG*    FAIR      81  55  40 SE5       30.13S
HANOVER        MOSUNNY   80  59  48 CALM      30.13S
TAPPAHANNOCK*  MOSUNNY   78  56  46 E5        30.14R
QUINTON*       FAIR      79  60  51 E6        30.12F
CHARLOTTSVILLE PTSUNNY   78  62  57 NE6       30.12S
GORDONSVILLE*  CLOUDY    80  62  55 S3        30.12S
ORANGE*        MOSUNNY   81  63  54 CALM      30.14S
LOUISA*        SUNNY     81  64  57 SE3       30.12S
BUMPASS*       FAIR      80  64  58 E3        30.12S
FARMVILLE*     MOSUNNY   80  60  51 CALM      30.10F
CREWE*         FAIR      79  59  49 SE3       30.12S
FORT PICKETT*  FAIR      79  58  48 SE8       30.12F
CHASE CITY*    FAIR      82  62  51 SE6       30.12F
CLARKSVILLE*   FAIR      77  59  53 CALM      30.12S
SOUTH HILL*    MOSUNNY   77  58  51 SE3       30.18F
LAWRENCEVILLE* FAIR      78  59  51 SE6       30.13S
EMPORIA*       PTSUNNY   75  55  50 SE6       30.15S
$$

VAZ088>098-070000-
SOUTHEAST VIRGINIA

CITY           SKY/WX    TMP DP  RH WIND       PRES   REMARKS
NORFOLK        CLOUDY    74  52  46 S8        30.14F
VIRGINIA BEACH CLOUDY    74  54  49 SE10      30.14F
NORFOLK NAVAL  PTSUNNY   79  54  41 S10       30.15F
WEST POINT*    MOSUNNY   79  56  45 E8        30.15S
SALUDA*        FAIR      72  56  57 SE6       30.15S
NEWPORT NEWS   PTSUNNY   80  56  43 SE9       30.14S
LANGLEY AFB    PTSUNNY   76  53  43 SE7       30.13F
FORT EUSTIS    MOSUNNY   77  59  54 SE8       30.12F
WILLIAMSBURG*  MOSUNNY   81  63  54 SE9       30.14F
HR EXEC AP*    FAIR      75  55  50 SE7       30.16F
FRANKLIN*      PTSUNNY   75  54  48 SE7       30.14F
WAKEFIELD      PTSUNNY   78  57  48 S7        30.13F
$$

VAZ020-022-025-037-045-070000-
WEST CENTRAL AND SOUTHWEST VIRGINIA

CITY           SKY/WX    TMP DP  RH WIND       PRES   REMARKS
STAUNTON*      RAIN      73  61  66 W6        30.15F
WAYNESBORO*    FAIR      74  58  58 W6        30.16S
HOT SPRINGS VA PTSUNNY   67  48  51 CALM      30.25F
LYNCHBURG      PTSUNNY   73  58  59 S7        30.14F
DANVILLE       MOSUNNY   81  58  45 SE3       30.11F
SOUTH BOSTON*  FAIR      80  57  45 SE5       30.12S
MARTINSVILLE   CLOUDY    81  59  47 CALM      30.15S
ROANOKE        TSTM      66  63  90 N16G36    30.21R FOG
BLACKSBURG     MOSUNNY   72  57  60 CALM      30.21F
DUBLIN*        MOSUNNY   76  58  52 CALM      30.19F
MARION*        MOSUNNY   71  56  60 CALM      30.23F
HILLSVILLE*    MOSUNNY   72  56  57 CALM      30.21S
RICHLANDS*     CLOUDY    67  54  61 CALM      30.21F
WISE*          MOSUNNY   70  46  43 E3        30.21F
ABINGDON*      MOSUNNY   74  54  48 E8        30.18S
$$

MDZ021>025-VAZ099-100-070000-
SOUTHERN MARYLAND AND THE DELMARVA PENINSULA

CITY           SKY/WX    TMP DP  RH WIND       PRES   REMARKS
PATUXENT RIVER PTSUNNY   69  55  60 SE9       30.15F
BAY BRIDGE APT   N/A    N/A N/A N/A E8        30.18R
LEONARDTOWN    MOSUNNY   72  55  56 E3        30.16F
DOVER          PTSUNNY   66  55  69 SE10      30.16S
GEORGETOWN     PTCLDY    62  51  67 E15       30.21S
EASTON         SUNNY     77  57  50 E10       30.21S
CAMBRIDGE      MOSUNNY   73  55  53 E8        30.16S
SALISBURY      PTCLDY    66  55  67 E9        30.18S
OCEAN CITY     PTCLDY    57  51  80 NE8       30.21S
WALLOPS ISLAND PTCLDY    63  58  83 E10       30.19R
ACCOMACK*      MOSUNNY   70  59  68 S6        30.17S
$$

NCZ012>017-030>032-070000-
NORTH CENTRAL AND EASTERN NORTH CAROLINA

CITY           SKY/WX    TMP DP  RH WIND       PRES   REMARKS
ROANOKE RAPIDS FAIR      73  57  56 CALM      30.13F
RALEIGH        CLOUDY    77  56  48 SE7       30.13F
ELIZABETH CITY CLOUDY    70  57  63 SE8       30.16F
AHOSKIE*       PTSUNNY   73  57  57 SE3       30.15S
EDENTON*       CLOUDY    71  61  69 E5        30.15F
CURRITUCK*     CLOUDY    71  56  59 SE3       30.17S
KILL DEVIL HLS CLOUDY    66  56  69 CALM      30.16S
MANTEO         CLOUDY    68  58  70 E3        30.17S
CAPE HATTERAS  CLOUDY    68  58  70 E9        30.15F
TARBORO*       FAIR      75  59  56 CALM      30.14S
GOLDSBORO      CLOUDY    74  53  48 E6        30.12S
WASHINGTON     CLOUDY    70  56  62 SE6       30.16S
GREENVILLE     CLOUDY    72  55  56 SE6       30.16S
NEW BERN       CLOUDY    71  58  63 E5        30.16S
WILMINGTON     CLOUDY    70  57  63 NE9       30.13F
$$

VAZ048-070000-
ELSEWHERE

CITY           SKY/WX    TMP DP  RH WIND       PRES   REMARKS
HARRISBURG PA  LGT RAIN  63  51  65 VRB5      30.19S
BALTIMORE      CLOUDY    73  58  59 E10       30.16R
ANNAPOLIS      MOSUNNY   72  57  59 E8        30.17R
ANDREWS AFB    CLOUDY    74  61  63 E8        30.16R
PHILADELPHIA   PTSUNNY   68  48  48 E10       30.20F
HENDERSON NC   PTSUNNY   76  53  44 SE6       30.13S
GREENSBORO     PTSUNNY   79  55  43 SE10      30.12F
ROCKY MOUNT    PTSUNNY   76  58  53 CALM      30.13F
$$

VAZ100-070000-
MARINE

STATION/POSITION TIME  TEMP    WIND        PRES    WAVE   SWELL
                       AIR SEA DIR/SP/G            HT/PER HT/PER
                 (UTC) (F)     (DEG/KT/KT) (MB)    (FT/S) (FT/S)
BRANDYWINE LGT   2200   63 58  130/  9/  9 1022.9R
CAPE MAY NJ      2200   65 62   80/  7/ 12 1022.3R
LEWES DE         2200   57 62   90/ 11/ 15 1023.2R
15NM E FENWICK I 2250   54 55              1022.8R   2/10
OCEAN-CITY-INLET 2200   57 64   30/  6/ 10 1022.6S
WACHAPREAGUE VA  2200   70 73  180/  8/ 10 1021.8R
THOMAS POINT MD  2300   71 60   90/ 13/ 14 1022.1R
GOOSES REEF MD   2300   68 66                N/A     1/ 2
COVE POINT MD    2200   68     190/  9/  9 1022.0R
SOLOMONS ISLAND  2200      64                N/A
BISHOPS HEAD MD  2200   71 71  120/  3/  4 1021.2R
PINEY POINT MD   2200          130/ 10/ 10   N/A
CAMBRIDGE MD     2200   74 65   60/ 11/ 13 1021.2R
LEWISETTA VA     2200   69 70              1020.6S
RAPPAHANNOCK LGT 2200          120/  8/  9 1022.0R
YORK RVR RNG VA  2200   67     140/ 13/ 14 1020.3F
YORKTOWN VA      2200          130/  8/ 11 1020.4F
JAMESTOWN VA     2300   76 69  120/  8/ 10 1019.3F
DOMINION TERM VA 2200   74     150/ 11/ 12 1020.8F
KIPTOPEKE VA     2200      70  170/ 14/ 17   N/A
CHES BAY BRIDGE  2200   70 62  130/  7/ 10 1020.8F
CAPE HENRY VA    2200   69     140/  9/ 11 1020.1F
CHESAPEAKE LGHT  2200   66     170/ 15/ 15 1022.0F
WILLOUBY STN VA  2200   76     160/ 11/ 12 1021.6S
S CRANEY ISL VA  2200          230/  2/  4 1020.9F
CAPE HENRY BUOY  2228      63                N/A     2/11
1ST LANDING BUOY 2300      63                N/A
CAPE CHARLES BUO 2226      63                N/A     2/11   2/11
OFFSHORE WE BUOY 2211      64                N/A     2/ 8   2/ 8
64NM E OF VA BCH 2250   66 61  100/  4/  4 1021.4F   2/ 8   2/ 8
DUCK PIER NC     2200   65 51  110/  5/  5 1020.9F
44100 DUCK FRF   2224      62                N/A     2/ 8
44056 DUCK FRF   2211      59                N/A     1/11
OREGON INLET NC  2200   68 71   50/  7/  9 1021.6F
HATTERAS NC      2200   71 68   90/  6/ 10 1020.6F
DIAMOND SHLS NC  2250   71 74   90/ 14/ 16 1020.6F   4/ 7   2/ 7
CAPE LOOKOUT NC  2300   69      60/  9/  9 1019.8F
$$


USA.gov is the U.S. government's official web portal to all federal, state and local government web resources and services.